GW1912 Weather Reports


time (UTC)temp
F
wind
direction
speed
knots
gust
knots
rain 1hr
in
rain 24hr
in
rain mn
in
humidity
%
barometer
mb
20260506222032 43 325 0.0 0.9 0.00 0.96 0.86 96 1008.3
20260506221544 43 338 0.0 2.6 0.00 0.96 0.86 96 1008.2
20260506221034 43 0 0.0 2.6 0.00 0.96 0.86 96 1008.3
20260506220531 43 0 0.9 2.6 0.00 0.96 0.86 96 1008.5
20260506220044 43 325 0.9 2.6 0.01 0.96 0.86 96 1008.5
20260506215531 43 327 0.9 2.6 0.01 0.96 0.86 96 1008.5
20260506215031 43 333 0.9 2.6 0.01 0.96 0.86 96 1008.4
20260506214546 43 321 0.9 2.6 0.01 0.96 0.86 97 1008.3
20260506214031 43 326 0.9 2.6 0.02 0.96 0.86 96 1008.2
20260506213531 43 327 1.7 3.5 0.02 0.96 0.86 96 1008.1
20260506213045 43 330 1.7 3.5 0.02 0.96 0.86 96 1008.2
20260506212532 43 318 0.9 3.5 0.03 0.96 0.86 96 1008.1
20260506212031 43 347 0.9 1.7 0.03 0.96 0.86 96 1008.0
20260506211543 43 328 0.9 1.7 0.03 0.96 0.86 97 1008.1
20260506211031 43 326 0.9 1.7 0.03 0.96 0.86 97 1007.9
20260506210535 43 349 0.9 1.7 0.04 0.96 0.86 97 1007.9
20260506210049 43 335 0.9 2.6 0.03 0.95 0.85 97 1007.8
20260506205531 43 338 0.9 2.6 0.03 0.96 0.85 97 1008.0
20260506205031 43 327 0.9 2.6 0.03 0.96 0.85 96 1008.0
20260506204541 43 330 0.9 2.6 0.03 0.96 0.85 96 1008.2
20260506204031 43 316 0.9 1.7 0.02 0.95 0.84 97 1008.1
20260506203532 43 326 0.9 2.6 0.02 0.95 0.84 96 1008.1
20260506203051 43 323 0.9 2.6 0.02 0.95 0.84 96 1008.2
20260506202531 43 354 0.9 2.6 0.01 0.94 0.83 96 1008.2
20260506202032 43 316 0.9 2.6 0.01 0.94 0.83 96 1008.1
20260506201600 43 349 0.9 2.6 0.02 0.94 0.83 96 1008.2
20260506201034 43 325 0.9 2.6 0.02 0.94 0.83 96 1008.1
20260506200531 43 327 0.9 2.6 0.01 0.93 0.82 96 1008.1
20260506200043 44 329 0.9 1.7 0.02 0.93 0.82 96 1008.1
20260506195531 44 324 0.0 1.7 0.02 1.00 0.82 96 1008.0
20260506195032 44 329 0.9 1.7 0.02 1.00 0.82 96 1008.0
20260506194550 44 317 0.9 1.7 0.02 1.00 0.82 96 1007.8
20260506194033 44 334 0.9 1.7 0.02 1.00 0.82 96 1007.9
20260506193535 44 322 0.0 1.7 0.03 1.00 0.82 96 1008.0
20260506193045 44 326 0.0 0.9 0.03 1.00 0.82 96 1008.0
20260506192531 44 326 0.0 0.9 0.03 1.00 0.82 96 1007.9
20260506192031 44 330 0.0 0.9 0.03 1.00 0.82 96 1007.8
20260506191541 44 0 0.0 0.9 0.02 0.99 0.81 97 1007.8
20260506191034 44 322 0.0 0.9 0.02 0.99 0.81 97 1007.7
20260506190532 44 326 0.0 0.0 0.02 0.99 0.81 97 1007.7
20260506190043 43 0 0.0 0.9 0.01 0.98 0.80 96 1007.8
20260506185531 43 0 0.0 1.7 0.02 1.09 0.80 96 1007.8
20260506185031 43 326 0.0 1.7 0.02 1.09 0.80 96 1007.8
20260506184553 43 0 0.0 1.7 0.02 1.09 0.80 96 1007.9
20260506184031 43 321 0.9 1.7 0.03 1.09 0.80 96 1007.9
20260506183532 43 321 0.9 1.7 0.02 1.08 0.79 96 1008.0
20260506183050 43 319 0.9 2.6 0.04 1.08 0.79 96 1008.2
20260506182531 43 334 0.9 2.6 0.04 1.08 0.79 96 1008.2
20260506182033 43 327 0.9 1.7 0.05 1.08 0.79 96 1008.2
20260506181550 43 322 0.9 1.7 0.05 1.08 0.79 97 1008.3
20260506181032 43 338 0.0 1.7 0.06 1.08 0.79 97 1008.2
20260506180531 43 329 0.9 1.7 0.06 1.08 0.79 96 1008.5
20260506180045 43 323 0.9 1.7 0.07 1.08 0.79 97 1008.6
20260506175533 43 328 0.0 1.7 0.06 1.07 0.78 96 1008.6
20260506175033 43 320 0.0 2.6 0.07 1.07 0.78 97 1008.6
20260506174543 43 309 0.9 2.6 0.07 1.07 0.78 96 1008.7
20260506174035 43 319 0.9 2.6 0.06 1.05 0.77 96 1008.8
20260506173532 43 323 0.9 1.7 0.06 1.04 0.76 96 1008.8
20260506173104 43 326 0.0 0.9 0.06 1.04 0.75 96 1008.8
20260506172531 43 320 0.0 1.7 0.06 1.04 0.75 97 1008.7
20260506172032 43 319 0.9 1.7 0.06 1.03 0.74 96 1008.9
20260506171553 43 333 0.0 1.7 0.07 1.03 0.74 96 1008.9
20260506171031 43 331 0.0 1.7 0.07 1.02 0.73 96 1008.9
20260506170531 42 335 0.9 0.9 0.07 1.01 0.72 96 1008.8
20260506170041 42 0 0.0 1.7 0.07 1.01 0.72 96 1008.9
20260506165535 42 313 0.9 1.7 0.08 1.01 0.72 96 1008.7
20260506165031 42 326 0.9 1.7 0.08 1.00 0.71 96 1008.9
20260506164543 42 319 0.9 1.7 0.09 1.00 0.71 96 1009.0
20260506164031 42 330 0.9 2.6 0.09 0.99 0.70 96 1009.0
20260506163532 42 325 0.9 2.6 0.09 0.99 0.70 96 1008.9
20260506163059 42 328 0.9 1.7 0.09 0.98 0.69 96 1009.0
20260506162533 42 333 0.9 2.6 0.10 0.98 0.69 96 1009.1
20260506162035 42 328 0.9 2.6 0.10 0.97 0.68 96 1009.3
20260506161545 42 253 0.9 2.6 0.11 0.96 0.67 96 1009.3
20260506161036 42 318 0.9 2.6 0.11 0.95 0.66 96 1009.4
20260506160535 42 335 0.9 1.7 0.11 0.94 0.65 96 1009.3
20260506160044 42 316 0.9 2.6 0.11 0.93 0.64 96 1009.5
20260506155532 42 330 0.9 2.6 0.12 0.93 0.64 96 1009.4
20260506155033 43 320 0.9 2.6 0.12 0.92 0.63 96 1009.4
20260506154547 43 328 0.9 1.7 0.11 0.91 0.62 96 1009.5
20260506154032 43 318 0.9 2.6 0.11 0.90 0.61 96 1009.6
20260506153531 43 323 0.9 2.6 0.12 0.90 0.61 96 1009.6
20260506153047 43 326 1.7 2.6 0.12 0.89 0.60 96 1009.4
20260506152533 43 333 0.9 2.6 0.11 0.88 0.58 96 1009.2
20260506152033 43 311 0.9 1.7 0.11 0.87 0.58 96 1009.4
20260506151544 43 323 0.9 1.7 0.09 0.84 0.55 96 1009.6
20260506151032 43 330 0.9 1.7 0.08 0.83 0.54 96 1009.2
20260506150532 43 314 0.9 1.7 0.09 0.83 0.54 96 1009.2
20260506150043 43 335 0.9 1.7 0.08 0.82 0.52 96 1009.3
20260506145536 43 319 0.9 1.7 0.08 0.81 0.52 96 1009.1
20260506145036 43 323 0.0 1.7 0.08 0.80 0.51 96 1009.0
20260506144544 43 322 0.9 2.6 0.08 0.80 0.51 96 1009.1
20260506144033 43 316 0.9 2.6 0.07 0.79 0.50 95 1009.1
20260506143532 43 327 0.9 1.7 0.07 0.78 0.49 96 1009.2
20260506143038 43 330 0.9 1.7 0.06 0.77 0.48 96 1009.1
20260506142531 43 349 0.9 1.7 0.06 0.77 0.48 96 1009.2
20260506142034 43 335 0.9 2.6 0.05 0.76 0.47 95 1009.2
20260506141549 43 323 0.9 2.6 0.05 0.75 0.46 95 1009.2
20260506141035 43 325 0.9 1.7 0.05 0.75 0.46 95 1009.3
20260506140535 43 323 0.9 1.7 0.04 0.74 0.45 95 1009.4
20260506140054 43 308 0.9 1.7 0.04 0.74 0.45 95 1009.2
20260506135531 43 331 0.9 1.7 0.03 0.73 0.44 95 1009.3
20260506135032 43 335 0.9 2.6 0.03 0.72 0.43 95 1009.4
20260506134544 43 321 0.9 2.6 0.03 0.72 0.43 95 1009.3
20260506134031 43 333 0.9 2.6 0.03 0.72 0.43 95 1009.3
20260506133531 43 326 0.9 2.6 0.04 0.71 0.42 95 1009.2
20260506133047 43 330 0.9 2.6 0.06 0.71 0.42 95 1009.2
20260506132531 43 316 0.9 2.6 0.07 0.71 0.42 95 1009.2
20260506132032 43 333 0.9 2.6 0.08 0.71 0.42 95 1009.3
20260506131543 43 325 0.9 2.6 0.07 0.70 0.41 95 1009.3
20260506131034 43 326 0.9 2.6 0.08 0.70 0.41 95 1009.5
20260506130532 43 349 0.9 3.5 0.09 0.70 0.41 94 1009.6
20260506130052 43 349 1.7 3.5 0.09 0.70 0.41 94 1009.6
20260506125531 43 319 1.7 4.3 0.10 0.70 0.41 94 1009.8
20260506125031 43 324 2.6 4.3 0.09 0.69 0.40 94 1009.6
20260506124542 44 4 1.7 2.6 0.10 0.69 0.40 94 1010.0
20260506124031 44 334 1.7 2.6 0.10 0.69 0.40 94 1009.8
20260506123531 44 354 0.9 4.3 0.08 0.67 0.38 94 1009.8
20260506123044 44 309 1.7 4.3 0.07 0.65 0.36 95 1010.2
20260506122531 45 18 0.9 2.6 0.06 0.64 0.35 95 1010.4
20260506122033 44 328 0.9 2.6 0.06 0.63 0.34 94 1009.2
20260506121541 44 335 0.9 2.6 0.06 0.63 0.34 94 1010.0
20260506121029 44 343 1.7 2.6 0.06 0.62 0.33 94 1010.0
20260506120531 45 1 1.7 2.6 0.06 0.61 0.32 94 1010.1
20260506120108 45 327 1.7 2.6 0.06 0.61 0.32 94 1010.1
20260506115531 45 359 0.9 2.6 0.05 0.60 0.31 94 1010.2
20260506115031 45 22 0.0 2.6 0.05 0.60 0.31 94 1010.2
20260506114553 45 328 0.9 2.6 0.04 0.58 0.30 94 1010.2
20260506114031 45 335 0.9 1.7 0.04 0.58 0.30 94 1010.1
20260506113532 46 348 0.9 1.7 0.03 0.58 0.29 95 1010.1
20260506113044 46 335 0.9 1.7 0.03 0.58 0.29 95 1010.2
20260506112532 46 331 0.9 1.7 0.03 0.58 0.29 94 1010.3
20260506112032 46 345 0.0 0.9 0.02 0.57 0.28 94 1010.4
20260506111542 46 322 0.0 0.9 0.02 0.57 0.28 94 1010.2
20260506111033 46 335 0.0 0.9 0.01 0.56 0.27 94 1010.0
20260506110531 46 335 0.0 0.9 0.00 0.55 0.26 93 1009.7
20260506110040 46 0 0.0 0.9 0.01 0.55 0.26 93 1009.5
20260506105531 46 0 0.0 1.7 0.01 0.55 0.26 93 1009.4
20260506105034 46 0 0.0 1.7 0.01 0.55 0.26 93 1009.4
20260506104547 46 333 0.0 1.7 0.01 0.55 0.26 93 1009.3
20260506104032 46 21 0.0 1.7 0.01 0.55 0.26 93 1009.6
20260506103533 46 360 0.9 1.7 0.04 0.55 0.26 93 1009.7
20260506103042 46 337 0.0 1.7 0.04 0.55 0.26 94 1009.6
20260506102534 46 328 0.9 1.7 0.04 0.55 0.26 93 1009.6
20260506102034 47 347 0.9 0.9 0.05 0.55 0.26 93 1009.5
20260506101541 47 15 0.0 0.9 0.05 0.55 0.26 94 1009.5
20260506101032 47 29 0.0 0.9 0.05 0.55 0.26 94 1009.6
20260506100536 47 150 0.0 0.9 0.06 0.55 0.26 93 1009.6
20260506100047 47 0 0.0 0.0 0.05 0.54 0.25 93 1009.5
20260506095533 47 0 0.0 1.7 0.05 0.54 0.25 93 1009.7
20260506095032 48 0 0.0 4.3 0.05 0.54 0.25 93 1009.8
20260506094546 48 118 0.0 4.3 0.05 0.54 0.25 92 1009.7
20260506094034 48 107 0.0 1.7 0.05 0.52 0.24 92 1009.0
20260506093537 48 345 0.9 1.7 0.03 0.51 0.22 93 1010.2
20260506093103 48 348 0.9 1.7 0.03 0.51 0.22 93 1009.7
20260506092533 48 333 0.0 2.6 0.03 0.51 0.22 93 1009.5
20260506092034 48 155 0.0 2.6 0.02 0.50 0.21 93 1009.6
20260506091546 49 342 0.0 2.6 0.03 0.50 0.21 93 1009.7
20260506091034 49 320 0.9 2.6 0.03 0.50 0.21 93 1009.7
20260506090532 49 177 0.9 2.6 0.02 0.49 0.20 93 1010.0
20260506090046 49 340 0.9 2.6 0.03 0.49 0.20 94 1009.9
20260506085532 49 0 0.9 2.6 0.03 0.49 0.20 93 1009.5
20260506085032 49 126 0.0 0.9 0.03 0.49 0.20 94 1009.6
20260506084541 49 0 0.0 0.9 0.04 0.49 0.20 94 1009.7
20260506084034 50 0 0.0 0.9 0.06 0.48 0.19 94 1009.9
20260506083532 50 0 0.0 1.7 0.06 0.48 0.19 94 1009.7
20260506083045 50 320 0.0 1.7 0.06 0.48 0.19 93 1009.8
20260506082534 50 148 0.0 2.6 0.06 0.48 0.19 94 1009.8
20260506082034 50 318 0.0 2.6 0.06 0.48 0.19 94 1009.6
20260506081545 50 137 0.0 2.6 0.05 0.47 0.18 94 1009.9
20260506081033 50 0 0.0 0.9 0.05 0.47 0.18 94 1009.9
20260506080533 50 349 0.0 1.7 0.05 0.47 0.18 94 1009.8
20260506073042 51 0 0.0 0.9 0.00 0.42 0.13 92 1009.4
20260506072531 51 0 0.0 0.9 0.00 0.42 0.13 93 1009.1
20260506072030 51 0 0.0 0.9 0.00 0.42 0.13 93 1009.5
20260506071548 51 331 0.0 2.6 0.00 0.42 0.13 93 1009.5
20260506071033 52 345 0.0 2.6 0.00 0.42 0.13 93 1009.2
20260506070535 52 319 0.9 2.6 0.00 0.42 0.13 94 1009.0
20260506062031 52 343 0.9 1.7 0.02 0.42 0.13 94 1009.2
20260506061556 52 0 0.0 0.9 0.02 0.42 0.13 95 1009.2
20260506061033 52 113 0.0 0.9 0.02 0.42 0.13 95 1009.2
20260506060532 52 0 0.0 0.0 0.02 0.42 0.13 95 1009.5
20260506051031 53 0 0.0 0.9 0.09 0.40 0.11 94 1009.2
20260506050531 53 113 0.0 0.9 0.09 0.40 0.11 94 1009.7
20260506045032 53 0 0.0 0.9 0.06 0.35 0.06 93 1009.6
20260506044547 53 0 0.0 0.9 0.06 0.34 0.05 93 1009.4
20260506044031 53 0 0.0 0.9 0.04 0.32 0.03 93 1009.1
20260506043532 53 122 0.0 0.9 0.05 0.32 0.03 93 1008.8
20260506043048 53 0 0.0 0.9 0.06 0.32 0.03 93 1009.0
20260506042532 53 0 0.0 0.9 0.06 0.32 0.03 93 1008.9
20260506042033 53 0 0.0 1.7 0.05 0.31 0.02 93 1008.9
20260506041559 53 122 0.0 1.7 0.07 0.31 0.02 93 1009.0
20260506041034 53 113 0.0 0.9 0.08 0.31 0.02 93 1008.8
20260506040534 53 0 0.0 0.9 0.08 0.30 0.01 93 1009.3
20260506040049 53 115 0.0 2.6 0.08 0.29 0.00 92 1009.5
20260506035532 53 129 0.0 2.6 0.09 0.29 0.29 92 1009.4
20260506035030 53 145 0.9 2.6 0.09 0.29 0.29 91 1009.1
20260506034543 54 125 0.0 0.9 0.09 0.28 0.28 91 1009.0
20260506034033 54 130 0.0 0.9 0.09 0.28 0.28 91 1009.1
20260506033533 54 0 0.0 0.9 0.08 0.27 0.27 89 1009.3
20260506033042 54 0 0.0 0.9 0.07 0.26 0.26 88 1009.1
20260506032532 54 135 0.0 0.9 0.07 0.26 0.26 88 1008.8
20260506032033 55 141 0.0 0.9 0.07 0.26 0.26 86 1008.8
20260506031544 55 275 0.0 0.9 0.05 0.24 0.24 84 1009.0
20260506031032 55 0 0.0 0.9 0.04 0.23 0.23 84 1009.0
20260506030534 56 0 0.0 0.9 0.03 0.22 0.22 83 1008.7
20260506030043 56 327 0.0 0.9 0.02 0.21 0.21 81 1008.8
20260506025533 57 0 0.0 2.6 0.01 0.20 0.20 78 1008.7
20260506025031 57 0 0.0 2.6 0.01 0.20 0.20 79 1008.6
20260506024545 58 328 0.9 3.5 0.00 0.19 0.19 78 1008.4
20260506024033 59 335 0.9 3.5 0.00 0.19 0.19 77 1008.1
20260506023534 59 316 0.9 3.5 0.00 0.19 0.19 81 1008.5
20260506023051 59 317 0.9 3.5 0.00 0.19 0.19 82 1008.3
20260506022532 59 302 1.7 4.3 0.00 0.19 0.19 85 1008.2
20260506022033 59 312 1.7 4.3 0.00 0.19 0.19 86 1008.1
20260506021540 60 332 1.7 3.5 0.00 0.19 0.19 84 1008.0
20260506021031 60 0 0.0 0.0 0.00 0.19 0.19 81 1007.6
20260506020531 60 0 0.0 0.0 0.00 0.19 0.19 82 1007.3
20260506020110 60 0 0.0 0.9 0.00 0.19 0.19 81 1007.3
20260506015534 60 0 0.0 0.9 0.00 0.19 0.19 82 1007.3
20260506015032 60 0 0.0 0.0 0.00 0.19 0.19 82 1007.3
20260506014544 60 0 0.0 0.0 0.00 0.19 0.19 82 1007.5
20260506014031 60 0 0.0 0.0 0.00 0.19 0.19 81 1007.6
20260506013533 60 0 0.0 0.0 0.00 0.19 0.19 81 1007.4
20260506013043 60 0 0.0 0.0 0.00 0.19 0.19 81 1007.4
20260506012531 60 0 0.0 0.0 0.00 0.19 0.19 81 1007.3
20260506012033 60 0 0.0 0.0 0.00 0.19 0.19 81 1007.1
20260506011549 60 0 0.0 0.0 0.00 0.19 0.19 81 1006.9
20260506011032 61 0 0.0 0.0 0.00 0.19 0.19 81 1006.7
20260506010532 61 0 0.0 0.9 0.00 0.19 0.19 81 1006.7
20260506010045 61 0 0.0 0.9 0.00 0.19 0.19 81 1006.5
20260506005531 61 0 0.0 0.9 0.00 0.19 0.19 80 1006.7
20260506005031 61 0 0.0 0.9 0.00 0.19 0.19 80 1006.6
20260506004545 61 0 0.0 0.9 0.00 0.19 0.19 81 1006.6
20260506004034 61 0 0.0 1.7 0.00 0.19 0.19 81 1006.5
20260506003533 61 0 0.0 1.7 0.00 0.19 0.19 81 1006.5
20260506003047 61 0 0.0 1.7 0.00 0.19 0.19 82 1006.4
20260506002531 61 0 0.0 0.9 0.00 0.19 0.19 82 1006.4
20260506002031 61 60 0.0 0.9 0.00 0.19 0.19 82 1006.3
20260506001549 61 0 0.0 0.9 0.00 0.19 0.19 82 1006.2
20260506001031 61 0 0.0 0.9 0.00 0.19 0.19 83 1006.3
20260506000530 61 0 0.0 0.9 0.00 0.19 0.19 83 1006.2
20260506000056 61 65 0.0 0.0 0.00 0.19 0.19 84 1006.2
20260505235531 61 0 0.0 0.0 0.00 0.19 0.19 84 1006.1
20260505235033 61 0 0.0 0.0 0.00 0.19 0.19 84 1006.0
20260505234548 61 0 0.0 0.0 0.00 0.19 0.19 84 1006.0
20260505234032 61 0 0.0 0.0 0.00 0.19 0.19 84 1006.0
20260505233531 61 0 0.0 0.9 0.00 0.19 0.19 83 1006.1
20260505233050 61 0 0.0 0.9 0.00 0.19 0.19 84 1006.1
20260505232531 61 0 0.0 0.9 0.00 0.19 0.19 84 1006.0
20260505232031 61 0 0.0 0.0 0.00 0.19 0.19 84 1006.1
20260505231552 61 0 0.0 0.9 0.00 0.19 0.19 85 1006.0
20260505231033 61 0 0.0 0.9 0.00 0.19 0.19 85 1005.8
20260505230532 61 0 0.0 0.0 0.00 0.19 0.19 85 1005.7
20260505230048 61 0 0.0 0.9 0.00 0.19 0.19 85 1005.7
20260505225531 62 0 0.0 0.9 0.00 0.19 0.19 85 1005.6
20260505225032 62 0 0.0 0.9 0.00 0.19 0.19 84 1005.5
20260505224548 62 0 0.0 0.0 0.00 0.19 0.19 85 1005.6
20260505224034 62 0 0.0 0.9 0.00 0.19 0.19 85 1005.6
20260505223532 62 0 0.0 0.9 0.00 0.19 0.19 85 1005.6
20260505223044 62 0 0.0 0.9 0.00 0.19 0.19 87 1005.5
20260505222533 61 0 0.0 0.9 0.00 0.19 0.19 86 1005.7